This is the latest recevied weather packets stored in our database for station/object DB0WUN-13. If no packets are shown the sender has not sent any weather packets the latest 1 day(s).
| Time | Temp. | Humidity | Pressure | Rain* | Wind** | Luminosity | Snow |
|---|---|---|---|---|---|---|---|
| 1778073349 | 16.11° C | 63% | 1007.1 hPa | 0 mm | 1.34 m/s, 223° | 243 W/m² | - |
| 1778073180 | 16.11° C | 62% | 1007.1 hPa | 0 mm | 1.34 m/s, 251° | 244 W/m² | - |
| 1778073120 | 16.11° C | 63% | 1007.1 hPa | 0 mm | 1.34 m/s, 215° | 244 W/m² | - |
| 1778073063 | 16.11° C | 63% | 1007.1 hPa | 0 mm | 1.34 m/s, 217° | 239 W/m² | - |
| 1778073000 | 16.11° C | 63% | 1007.2 hPa | 0 mm | 1.34 m/s, 247° | 251 W/m² | - |
| 1778072935 | 16.11° C | 62% | 1007.1 hPa | 0 mm | 0.89 m/s, 265° | 258 W/m² | - |
| 1778072875 | 16.11° C | 61% | 1007.2 hPa | 0 mm | 1.34 m/s, 269° | 278 W/m² | - |
| 1778072815 | 16.67° C | 62% | 1007.1 hPa | 0 mm | 1.34 m/s, 217° | 283 W/m² | - |
| 1778072764 | 16.67° C | 62% | 1007.2 hPa | 0 mm | 1.79 m/s, 189° | 276 W/m² | - |
| 1778072718 | 16.11° C | 62% | 1007.1 hPa | 0 mm | 1.79 m/s, 156° | 288 W/m² | - |
| 1778072673 | 16.11° C | 62% | 1007.2 hPa | 0 mm | 1.79 m/s, 215° | 309 W/m² | - |
| 1778072633 | 16.11° C | 61% | 1007.2 hPa | 0 mm | 1.79 m/s, 217° | 316 W/m² | - |
| 1778072597 | 16.11° C | 60% | 1007.2 hPa | 0 mm | 2.24 m/s, 215° | 311 W/m² | - |
| 1778072552 | 16.11° C | 61% | 1007.2 hPa | 0 mm | 2.24 m/s, 215° | 311 W/m² | - |
| 1778072495 | 16.11° C | 61% | 1007.2 hPa | 0 mm | 2.24 m/s, 200° | 313 W/m² | - |
| 1778072446 | 16.11° C | 61% | 1007.3 hPa | 0 mm | 2.24 m/s, 163° | 302 W/m² | - |
| 1778072272 | 16.11° C | 61% | 1007.2 hPa | 0 mm | 2.24 m/s, 229° | 301 W/m² | - |
| 1778072212 | 16.11° C | 61% | 1007.2 hPa | 0 mm | 1.79 m/s, 246° | 285 W/m² | - |
| 1778072154 | 16.11° C | 61% | 1007.3 hPa | 0 mm | 1.79 m/s, 216° | 267 W/m² | - |
| 1778072095 | 16.11° C | 61% | 1007.3 hPa | 0 mm | 1.79 m/s, 233° | 272 W/m² | - |
| 1778072034 | 16.11° C | 61% | 1007.3 hPa | 0 mm | 1.79 m/s, 194° | 271 W/m² | - |
| 1778071974 | 16.11° C | 61% | 1007.3 hPa | 0 mm | 1.34 m/s, 192° | 253 W/m² | - |
| 1778071920 | 16.67° C | 61% | 1007.3 hPa | 0 mm | 1.34 m/s, 179° | 255 W/m² | - |
| 1778071855 | 16.67° C | 61% | 1007.2 hPa | 0 mm | 1.34 m/s, 248° | 255 W/m² | - |
| 1778071789 | 16.67° C | 61% | 1007.3 hPa | 0 mm | 1.34 m/s, 242° | 258 W/m² | - |
* Rain latest hour (hover to see other rain measurements)
** Current wind speed in m/s (hover to see current wind gust speed)